Погода в Новом Бадикове

Россия / Республика Мордовия     53°47′38″N   42°44′25″E
темп.,
°C
ветер,
м/с
пор.,
м/с
влажн.,
%
обл.,
%
осадки,
мм/ч
давл.,
гПа
погр.,
м
9 мая, вс
вс900:00+11ююв61693100 1.4 1006592
03:00+11ююв51193100 2.3 1006360
06:00+11ю51096100 0.1 1006382
09:00+12ююв3698100 5.4 1006302
12:00+10зюз6895100 3.1 1007433
15:00+8з4692100 7.8 1010338
18:00+8юз3490100 1.2 1012435
21:00+6зсз5896100 1.3 1015414
10 мая, пн
пн1000:00+5сз4896100 0.0 1016460
03:00+6с51097100 0.0 1018494
06:00+6с61295100 0.1 1020517
09:00+6с61296100 1.6 1021593
12:00+6ссв71394100 1.1 1023517
15:00+8ссв81590100 1.4 1023627
18:00+9ссв81490100 0.0 1023536
21:00+8ссв81693100 0.0 1024415
11 мая, вт
вт1100:00+8ссв81793100 0.0 1023443
03:00+8св71592100 0.2 1023425
06:00+9св81691100 0.1 1024434
09:00+13всв8128199 0.1 1024529
12:00+17всв6974100 0.0 1025760
15:00+19в697276 0.7 10241153
18:00+16в358697 4.1 1024123
21:00+13вюв3594100 5.4 1025118
12 мая, ср
ср1200:00+11ссз1190100 0.4 102520
03:00+11св3795100 1.0 1024188
06:00+12св51192100 0.1 1024294
09:00+14в41089100 0.3 1024388
12:00+18вюв71167100 0.0 10241055
15:00+19вюв51167100 0.0 10231091
18:00+17юв5127397 0.1 1023544
21:00+15вюв5137744 0.1 1023446
13 мая, чт
чт1300:00+15вюв5127999 0.0 1023378
03:00+14вюв51277100 0.0 1022340
06:00+13вюв51278100 0.1 1022297
09:00+16вюв71369100 0.1 1021613
12:00+16вюв51074100 0.1 1021736
15:00+16юв698448 0.3 1021744
18:00+18юв48817 0.2 1020545
21:00+14юв35920 0.3 102073